Time,TemperatureF,DewpointF,PressureIn,WindDirection,WindDirectionDegrees,WindSpeedMPH,WindSpeedGustMPH,Humidity,HourlyPrecipIn,Conditions,Clouds,dailyrainin,SoftwareType,DateUTC
2013-02-19 05:03:00,34.2,23.7,29.20,North,-999,0.0,0.0,65,0.00,,,-99.99,FreeWX 2.04,2013-02-19 10:03:00,
2013-02-19 07:06:00,36.0,28.2,29.17,WSW,258,1.0,8.3,73,0.00,,,-99.99,FreeWX 2.04,2013-02-19 12:06:00,
2013-02-19 07:11:00,36.0,28.6,29.17,North,-999,0.0,5.8,74,0.00,,,-99.99,FreeWX 2.04,2013-02-19 12:11:00,
2013-02-19 07:16:00,35.8,28.6,29.17,North,-999,0.0,6.9,75,0.00,,,-99.99,FreeWX 2.04,2013-02-19 12:16:00,
2013-02-19 07:21:00,35.1,27.7,29.20,North,-999,0.0,4.9,74,0.00,,,-99.99,FreeWX 2.04,2013-02-19 12:21:00,
2013-02-19 07:26:00,34.7,27.3,29.20,West,267,1.0,7.4,74,0.00,,,-99.99,FreeWX 2.04,2013-02-19 12:26:00,
2013-02-19 07:31:00,34.5,27.5,29.20,WSW,255,1.0,8.7,75,0.00,,,-99.99,FreeWX 2.04,2013-02-19 12:31:00,
2013-02-19 07:36:00,34.3,27.3,29.20,North,-999,0.0,3.6,75,0.00,,,-99.99,FreeWX 2.04,2013-02-19 12:36:00,
2013-02-19 07:41:00,34.3,27.3,29.20,North,-999,0.0,0.0,75,0.00,,,-99.99,FreeWX 2.04,2013-02-19 12:41:00,
2013-02-19 07:46:00,34.3,27.5,29.20,North,-999,0.0,6.7,76,0.00,,,-99.99,FreeWX 2.04,2013-02-19 12:46:00,
2013-02-19 07:51:00,34.2,27.3,29.23,West,259,1.0,11.0,76,0.00,,,-99.99,FreeWX 2.04,2013-02-19 12:51:00,
2013-02-19 07:56:00,34.2,27.7,29.23,West,260,2.0,8.7,77,0.00,,,-99.99,FreeWX 2.04,2013-02-19 12:56:00,
2013-02-19 08:01:00,34.2,27.7,29.23,West,262,2.0,8.3,77,0.00,,,-99.99,FreeWX 2.04,2013-02-19 13:01:00,
2013-02-19 08:06:00,34.2,27.7,29.23,WSW,257,1.0,7.4,77,0.00,,,-99.99,FreeWX 2.04,2013-02-19 13:06:00,
2013-02-19 08:11:00,34.0,27.5,29.23,North,-999,0.0,6.9,77,0.00,,,-99.99,FreeWX 2.04,2013-02-19 13:11:00,
2013-02-19 08:16:00,34.0,27.5,29.23,North,-999,0.0,6.3,77,0.00,,,-99.99,FreeWX 2.04,2013-02-19 13:16:00,
2013-02-19 08:21:00,34.2,27.7,29.23,North,-999,0.0,6.7,77,0.00,,,-99.99,FreeWX 2.04,2013-02-19 13:21:00,
2013-02-19 08:26:00,34.2,27.7,29.23,North,-999,0.0,5.4,77,0.00,,,-99.99,FreeWX 2.04,2013-02-19 13:26:00,
2013-02-19 08:31:00,34.2,27.7,29.23,North,-999,0.0,3.6,77,0.00,,,-99.99,FreeWX 2.04,2013-02-19 13:31:00,
2013-02-19 08:36:00,34.5,28.0,29.23,North,-999,0.0,3.6,77,0.00,,,-99.99,FreeWX 2.04,2013-02-19 13:36:00,
2013-02-19 08:41:00,34.5,28.4,29.23,North,-999,0.0,4.0,78,0.00,,,-99.99,FreeWX 2.04,2013-02-19 13:41:00,
2013-02-19 08:46:00,34.5,28.0,29.23,North,-999,0.0,9.6,77,0.00,,,-99.99,FreeWX 2.04,2013-02-19 13:46:00,
2013-02-19 08:51:00,34.9,28.4,29.23,WSW,249,1.0,7.4,77,0.00,,,-99.99,FreeWX 2.04,2013-02-19 13:51:00,
2013-02-19 08:56:00,34.9,28.4,29.23,North,-999,0.0,4.0,77,0.00,,,-99.99,FreeWX 2.04,2013-02-19 13:56:00,
2013-02-19 09:01:00,34.9,28.4,29.23,North,-999,0.0,4.9,77,0.00,,,-99.99,FreeWX 2.04,2013-02-19 14:01:00,
2013-02-19 09:06:00,34.7,27.9,29.26,North,-999,0.0,5.4,76,0.00,,,-99.99,FreeWX 2.04,2013-02-19 14:06:00,
2013-02-19 09:11:00,34.5,27.5,29.26,North,-999,0.0,3.1,75,0.00,,,-99.99,FreeWX 2.04,2013-02-19 14:11:00,
2013-02-19 09:16:00,34.3,27.3,29.26,North,-999,0.0,2.7,75,0.00,,,-99.99,FreeWX 2.04,2013-02-19 14:16:00,
2013-02-19 09:21:00,34.2,26.8,29.26,North,-999,0.0,5.8,74,0.00,,,-99.99,FreeWX 2.04,2013-02-19 14:21:00,
2013-02-19 09:26:00,34.2,26.4,29.26,North,-999,0.0,6.3,73,0.00,,,-99.99,FreeWX 2.04,2013-02-19 14:26:00,
2013-02-19 09:31:00,34.0,25.9,29.26,North,-999,0.0,7.4,72,0.00,,,-99.99,FreeWX 2.04,2013-02-19 14:31:00,
2013-02-19 09:36:00,34.0,25.9,29.26,North,-999,0.0,3.1,72,0.00,,,-99.99,FreeWX 2.04,2013-02-19 14:36:00,
2013-02-19 09:41:00,34.0,25.5,29.26,North,-999,0.0,4.0,71,0.00,,,-99.99,FreeWX 2.04,2013-02-19 14:41:00,
2013-02-19 09:46:00,34.0,25.5,29.26,North,-999,0.0,4.9,71,0.00,,,-99.99,FreeWX 2.04,2013-02-19 14:46:00,
2013-02-19 09:51:00,34.0,25.2,29.26,North,-999,0.0,6.9,70,0.00,,,-99.99,FreeWX 2.04,2013-02-19 14:51:00,
2013-02-19 09:56:00,34.0,25.2,29.26,North,-999,0.0,7.4,70,0.00,,,-99.99,FreeWX 2.04,2013-02-19 14:56:00,
2013-02-19 10:01:00,34.0,25.0,29.26,North,-999,0.0,5.8,69,0.00,,,-99.99,FreeWX 2.04,2013-02-19 15:01:00,
2013-02-19 10:06:00,34.3,25.2,29.26,North,-999,0.0,5.8,69,0.00,,,-99.99,FreeWX 2.04,2013-02-19 15:06:00,
2013-02-19 10:11:00,34.3,25.0,29.26,North,-999,0.0,4.5,68,0.00,,,-99.99,FreeWX 2.04,2013-02-19 15:11:00,
2013-02-19 10:16:00,34.3,24.6,29.26,North,-999,0.0,6.7,67,0.00,,,-99.99,FreeWX 2.04,2013-02-19 15:16:00,
2013-02-19 10:21:00,34.0,23.2,29.29,North,-999,0.0,9.2,64,0.00,,,-99.99,FreeWX 2.04,2013-02-19 15:21:00,
2013-02-19 10:26:00,34.0,22.3,29.29,WSW,241,1.0,7.8,62,0.00,,,-99.99,FreeWX 2.04,2013-02-19 15:26:00,
2013-02-19 10:31:00,34.2,22.1,29.29,WSW,250,1.0,7.4,61,0.00,,,-99.99,FreeWX 2.04,2013-02-19 15:31:00,
2013-02-19 10:36:00,34.0,21.2,29.29,WSW,253,1.0,9.2,59,0.00,,,-99.99,FreeWX 2.04,2013-02-19 15:36:00,
2013-02-19 10:41:00,34.0,20.3,29.29,WSW,253,1.0,5.8,57,0.00,,,-99.99,FreeWX 2.04,2013-02-19 15:41:00,
2013-02-19 10:46:00,34.0,20.3,29.29,North,-999,0.0,11.0,57,0.00,,,-99.99,FreeWX 2.04,2013-02-19 15:46:00,
2013-02-19 10:51:00,33.8,19.8,29.29,North,-999,0.0,8.7,56,0.00,,,-99.99,FreeWX 2.04,2013-02-19 15:51:00,
2013-02-19 10:56:00,33.6,19.6,29.29,North,-999,0.0,10.1,56,0.00,,,-99.99,FreeWX 2.04,2013-02-19 15:56:00,
2013-02-19 11:01:00,33.4,19.0,29.29,WSW,251,2.0,8.3,55,0.00,,,-99.99,FreeWX 2.04,2013-02-19 16:01:00,
2013-02-19 11:07:00,33.8,19.4,29.29,WSW,252,2.0,8.3,55,0.00,,,-99.99,FreeWX 2.04,2013-02-19 16:07:00,
2013-02-19 11:12:00,33.8,19.4,29.29,WSW,253,1.0,6.9,55,0.00,,,-99.99,FreeWX 2.04,2013-02-19 16:12:00,
2013-02-19 11:17:00,33.8,19.4,29.29,WSW,249,1.0,6.7,55,0.00,,,-99.99,FreeWX 2.04,2013-02-19 16:17:00,
2013-02-19 11:22:00,33.8,18.9,29.29,WSW,247,1.0,11.2,54,0.00,,,-99.99,FreeWX 2.04,2013-02-19 16:22:00,
2013-02-19 11:27:00,33.8,18.5,29.29,WSW,245,2.0,11.6,53,0.00,,,-99.99,FreeWX 2.04,2013-02-19 16:27:00,
2013-02-19 11:32:00,33.6,18.0,29.29,WSW,250,3.0,10.1,52,0.00,,,-99.99,FreeWX 2.04,2013-02-19 16:32:00,
2013-02-19 11:37:00,34.0,18.1,29.29,WSW,252,2.0,6.9,52,0.00,,,-99.99,FreeWX 2.04,2013-02-19 16:37:00,
2013-02-19 11:42:00,34.3,18.5,29.29,WSW,250,1.0,8.3,52,0.00,,,-99.99,FreeWX 2.04,2013-02-19 16:42:00,
2013-02-19 11:47:00,34.3,18.1,29.29,WSW,254,1.0,11.0,51,0.00,,,-99.99,FreeWX 2.04,2013-02-19 16:47:00,
2013-02-19 11:52:00,34.5,17.8,29.29,WSW,254,2.0,11.0,50,0.00,,,-99.99,FreeWX 2.04,2013-02-19 16:52:00,
2013-02-19 11:57:00,34.9,18.1,29.29,WSW,247,1.0,10.1,50,0.00,,,-99.99,FreeWX 2.04,2013-02-19 16:57:00,
2013-02-19 12:02:00,34.9,17.2,29.29,WSW,248,1.0,7.8,48,0.00,,,-99.99,FreeWX 2.04,2013-02-19 17:02:00,
2013-02-19 12:07:00,34.7,15.6,29.32,WSW,258,1.0,4.0,45,0.00,,,-99.99,FreeWX 2.04,2013-02-19 17:07:00,
2013-02-19 12:12:00,34.5,14.9,29.32,West,259,1.0,9.2,44,0.00,,,-99.99,FreeWX 2.04,2013-02-19 17:12:00,
2013-02-19 12:17:00,35.6,16.3,29.32,WSW,249,1.0,8.7,45,0.00,,,-99.99,FreeWX 2.04,2013-02-19 17:17:00,
2013-02-19 12:22:00,35.4,14.7,29.32,WSW,244,1.0,7.8,42,0.00,,,-99.99,FreeWX 2.04,2013-02-19 17:22:00,
2013-02-19 12:27:00,35.1,13.8,29.32,WSW,244,1.0,7.8,41,0.00,,,-99.99,FreeWX 2.04,2013-02-19 17:27:00,
2013-02-19 12:32:00,34.7,13.5,29.32,WSW,248,1.0,6.3,41,0.00,,,-99.99,FreeWX 2.04,2013-02-19 17:32:00,
2013-02-19 12:37:00,34.7,13.5,29.32,North,-999,0.0,3.6,41,0.00,,,-99.99,FreeWX 2.04,2013-02-19 17:37:00,
2013-02-19 12:42:00,34.3,13.1,29.32,WSW,249,1.0,6.9,41,0.00,,,-99.99,FreeWX 2.04,2013-02-19 17:42:00,
2013-02-19 12:47:00,33.8,12.6,29.32,WSW,248,2.0,11.0,41,0.00,,,-99.99,FreeWX 2.04,2013-02-19 17:47:00,
2013-02-19 12:52:00,33.8,12.6,29.32,WSW,241,2.0,6.3,41,0.00,,,-99.99,FreeWX 2.04,2013-02-19 17:52:00,
2013-02-19 12:57:00,34.0,13.3,29.32,WSW,240,1.0,6.9,42,0.00,,,-99.99,FreeWX 2.04,2013-02-19 17:57:00,
2013-02-19 13:02:00,34.2,12.9,29.32,WSW,249,1.0,5.4,41,0.00,,,-99.99,FreeWX 2.04,2013-02-19 18:02:00,
2013-02-19 13:07:00,34.5,13.3,29.32,WSW,254,1.0,9.2,41,0.00,,,-99.99,FreeWX 2.04,2013-02-19 18:07:00,
2013-02-19 13:12:00,34.7,13.5,29.32,WSW,250,1.0,6.9,41,0.00,,,-99.99,FreeWX 2.04,2013-02-19 18:12:00,
2013-02-19 13:17:00,34.5,13.3,29.32,WSW,242,1.0,7.4,41,0.00,,,-99.99,FreeWX 2.04,2013-02-19 18:17:00,
2013-02-19 13:22:00,34.3,13.1,29.32,WSW,242,2.0,8.3,41,0.00,,,-99.99,FreeWX 2.04,2013-02-19 18:22:00,
2013-02-19 13:27:00,34.3,13.1,29.32,WSW,245,1.0,6.7,41,0.00,,,-99.99,FreeWX 2.04,2013-02-19 18:27:00,
2013-02-19 13:32:00,34.5,13.3,29.32,North,-999,0.0,5.8,41,0.00,,,-99.99,FreeWX 2.04,2013-02-19 18:32:00,
2013-02-19 13:37:00,33.8,12.0,29.32,WSW,248,1.0,11.0,40,0.00,,,-99.99,FreeWX 2.04,2013-02-19 18:37:00,
2013-02-19 13:42:00,33.3,11.7,29.32,WSW,256,1.0,7.4,40,0.00,,,-99.99,FreeWX 2.04,2013-02-19 18:42:00,
2013-02-19 13:47:00,33.1,12.0,29.32,North,-999,0.0,5.4,41,0.00,,,-99.99,FreeWX 2.04,2013-02-19 18:47:00,
2013-02-19 13:52:00,33.6,12.9,29.32,North,-999,0.0,7.8,42,0.00,,,-99.99,FreeWX 2.04,2013-02-19 18:52:00,
2013-02-19 13:57:00,35.1,14.9,29.32,North,-999,0.0,4.5,43,0.00,,,-99.99,FreeWX 2.04,2013-02-19 18:57:00,
2013-02-19 14:02:00,35.6,13.1,29.32,West,262,2.0,13.4,39,0.00,,,-99.99,FreeWX 2.04,2013-02-19 19:02:00,
2013-02-19 14:07:00,35.8,10.2,29.32,West,268,3.0,11.0,34,0.00,,,-99.99,FreeWX 2.04,2013-02-19 19:07:00,
2013-02-19 14:12:00,35.6,8.1,29.32,West,264,3.0,9.2,31,0.00,,,-99.99,FreeWX 2.04,2013-02-19 19:12:00,
2013-02-19 14:17:00,35.4,7.2,29.32,West,273,3.0,8.3,30,0.00,,,-99.99,FreeWX 2.04,2013-02-19 19:17:00,
2013-02-19 14:22:00,34.9,6.6,29.35,West,277,3.0,10.5,30,0.00,,,-99.99,FreeWX 2.04,2013-02-19 19:22:00,
2013-02-19 14:27:00,34.5,7.0,29.35,West,270,3.0,10.5,31,0.00,,,-99.99,FreeWX 2.04,2013-02-19 19:27:00,
2013-02-19 14:32:00,34.0,6.6,29.35,West,274,3.0,10.5,31,0.00,,,-99.99,FreeWX 2.04,2013-02-19 19:32:00,
2013-02-19 14:37:00,33.4,6.1,29.35,West,273,2.0,10.5,31,0.00,,,-99.99,FreeWX 2.04,2013-02-19 19:37:00,
2013-02-19 14:42:00,32.9,7.0,29.35,West,267,3.0,11.0,33,0.00,,,-99.99,FreeWX 2.04,2013-02-19 19:42:00,
2013-02-19 14:47:00,32.5,7.3,29.35,West,272,2.0,7.8,34,0.00,,,-99.99,FreeWX 2.04,2013-02-19 19:47:00,
2013-02-19 14:52:00,32.5,7.9,29.35,West,269,1.0,7.8,35,0.00,,,-99.99,FreeWX 2.04,2013-02-19 19:52:00,
2013-02-19 14:57:00,33.3,7.9,29.35,West,267,2.0,6.9,34,0.00,,,-99.99,FreeWX 2.04,2013-02-19 19:57:00,
2013-02-19 15:02:00,32.7,6.8,29.35,West,268,2.0,8.7,33,0.00,,,-99.99,FreeWX 2.04,2013-02-19 20:02:00,
2013-02-19 15:07:00,32.2,5.7,29.38,West,267,3.0,12.5,32,0.00,,,-99.99,FreeWX 2.04,2013-02-19 20:07:00,
2013-02-19 15:12:00,31.5,5.7,29.38,West,276,3.0,9.6,33,0.00,,,-99.99,FreeWX 2.04,2013-02-19 20:12:00,
2013-02-19 15:17:00,31.6,6.4,29.38,West,274,3.0,10.1,34,0.00,,,-99.99,FreeWX 2.04,2013-02-19 20:17:00,
2013-02-19 15:22:00,32.2,7.0,29.38,West,267,2.0,8.3,34,0.00,,,-99.99,FreeWX 2.04,2013-02-19 20:22:00,
2013-02-19 15:27:00,31.8,5.4,29.38,West,272,2.0,11.6,32,0.00,,,-99.99,FreeWX 2.04,2013-02-19 20:27:00,
2013-02-19 15:32:00,31.6,5.2,29.38,West,276,2.0,7.8,32,0.00,,,-99.99,FreeWX 2.04,2013-02-19 20:32:00,
2013-02-19 15:37:00,31.1,4.6,29.38,WNW,288,2.0,11.2,32,0.00,,,-99.99,FreeWX 2.04,2013-02-19 20:37:00,
2013-02-19 15:42:00,30.4,4.1,29.38,WNW,290,3.0,15.9,32,0.00,,,-99.99,FreeWX 2.04,2013-02-19 20:42:00,
2013-02-19 15:47:00,30.6,4.3,29.38,West,279,4.0,11.6,32,0.00,,,-99.99,FreeWX 2.04,2013-02-19 20:47:00,
2013-02-19 15:52:00,30.4,4.1,29.41,WNW,282,4.0,13.0,32,0.00,,,-99.99,FreeWX 2.04,2013-02-19 20:52:00,
2013-02-19 15:57:00,30.2,3.9,29.41,West,278,3.0,9.2,32,0.00,,,-99.99,FreeWX 2.04,2013-02-19 20:57:00,
2013-02-19 16:02:00,29.8,5.0,29.41,West,269,2.0,11.0,34,0.00,,,-99.99,FreeWX 2.04,2013-02-19 21:02:00,
2013-02-19 16:07:00,28.9,6.6,29.41,West,272,2.0,11.6,38,0.00,,,-99.99,FreeWX 2.04,2013-02-19 21:07:00,
2013-02-19 16:12:00,28.4,7.7,29.41,West,266,2.0,8.7,41,0.00,,,-99.99,FreeWX 2.04,2013-02-19 21:12:00,
2013-02-19 16:17:00,28.0,7.9,29.41,West,267,1.0,8.3,42,0.00,,,-99.99,FreeWX 2.04,2013-02-19 21:17:00,
2013-02-19 16:22:00,28.2,8.1,29.44,West,273,2.0,9.2,42,0.00,,,-99.99,FreeWX 2.04,2013-02-19 21:22:00,
2013-02-19 16:27:00,28.0,6.8,29.44,West,273,2.0,11.0,40,0.00,,,-99.99,FreeWX 2.04,2013-02-19 21:27:00,
2013-02-19 16:32:00,28.0,5.7,29.44,WNW,287,2.0,7.8,38,0.00,,,-99.99,FreeWX 2.04,2013-02-19 21:32:00,
2013-02-19 16:37:00,28.0,5.2,29.44,WNW,291,2.0,11.6,37,0.00,,,-99.99,FreeWX 2.04,2013-02-19 21:37:00,
2013-02-19 16:42:00,27.5,3.6,29.44,WNW,283,3.0,9.6,35,0.00,,,-99.99,FreeWX 2.04,2013-02-19 21:42:00,
2013-02-19 16:47:00,27.5,4.6,29.44,West,274,2.0,12.1,37,0.00,,,-99.99,FreeWX 2.04,2013-02-19 21:47:00,
2013-02-19 16:52:00,27.1,6.1,29.44,West,270,2.0,9.6,40,0.00,,,-99.99,FreeWX 2.04,2013-02-19 21:52:00,
2013-02-19 16:57:00,26.8,6.8,29.44,West,268,2.0,10.1,42,0.00,,,-99.99,FreeWX 2.04,2013-02-19 21:57:00,
2013-02-19 17:02:00,26.6,7.2,29.44,West,260,1.0,5.4,43,0.00,,,-99.99,FreeWX 2.04,2013-02-19 22:02:00,
2013-02-19 17:07:00,26.2,6.8,29.47,West,265,1.0,14.8,43,0.00,,,-99.99,FreeWX 2.04,2013-02-19 22:07:00,
2013-02-19 17:12:00,26.1,7.2,29.47,West,265,1.0,4.5,44,0.00,,,-99.99,FreeWX 2.04,2013-02-19 22:12:00,
2013-02-19 17:17:00,25.7,6.8,29.47,West,266,1.0,8.3,44,0.00,,,-99.99,FreeWX 2.04,2013-02-19 22:17:00,
2013-02-19 17:22:00,25.3,7.0,29.47,West,274,2.0,8.3,45,0.00,,,-99.99,FreeWX 2.04,2013-02-19 22:22:00,
2013-02-19 17:27:00,25.0,7.2,29.47,West,273,2.0,6.7,46,0.00,,,-99.99,FreeWX 2.04,2013-02-19 22:27:00,
2013-02-19 17:32:00,24.6,7.3,29.47,West,279,2.0,11.0,47,0.00,,,-99.99,FreeWX 2.04,2013-02-19 22:32:00,
2013-02-19 17:37:00,24.6,7.7,29.47,WNW,284,2.0,15.9,48,0.00,,,-99.99,FreeWX 2.04,2013-02-19 22:37:00,
2013-02-19 17:42:00,24.6,7.7,29.47,West,271,1.0,6.3,48,0.00,,,-99.99,FreeWX 2.04,2013-02-19 22:42:00,
2013-02-19 17:47:00,24.4,7.2,29.47,West,263,1.0,6.7,47,0.00,,,-99.99,FreeWX 2.04,2013-02-19 22:47:00,
2013-02-19 17:52:00,24.3,6.4,29.50,West,278,2.0,9.2,46,0.00,,,-99.99,FreeWX 2.04,2013-02-19 22:52:00,
2013-02-19 17:57:00,24.1,5.9,29.50,WNW,287,2.0,7.4,45,0.00,,,-99.99,FreeWX 2.04,2013-02-19 22:57:00,
2013-02-19 18:02:00,24.1,5.9,29.50,West,281,1.0,7.4,45,0.00,,,-99.99,FreeWX 2.04,2013-02-19 23:02:00,
2013-02-19 18:07:00,23.9,5.7,29.50,West,272,1.0,8.7,45,0.00,,,-99.99,FreeWX 2.04,2013-02-19 23:07:00,
2013-02-19 18:12:00,23.7,4.5,29.50,West,275,2.0,13.4,43,0.00,,,-99.99,FreeWX 2.04,2013-02-19 23:12:00,
2013-02-19 18:17:00,23.7,4.1,29.50,WNW,282,3.0,7.8,42,0.00,,,-99.99,FreeWX 2.04,2013-02-19 23:17:00,
2013-02-19 18:22:00,23.7,4.1,29.50,West,269,2.0,8.3,42,0.00,,,-99.99,FreeWX 2.04,2013-02-19 23:22:00,
2013-02-19 18:27:00,23.7,4.1,29.50,West,267,1.0,9.6,42,0.00,,,-99.99,FreeWX 2.04,2013-02-19 23:27:00,
2013-02-19 18:32:00,23.7,4.1,29.50,West,277,1.0,8.7,42,0.00,,,-99.99,FreeWX 2.04,2013-02-19 23:32:00,
2013-02-19 18:37:00,23.4,3.7,29.53,West,280,2.0,10.1,42,0.00,,,-99.99,FreeWX 2.04,2013-02-19 23:37:00,
2013-02-19 18:42:00,23.4,3.7,29.53,WNW,292,2.0,7.8,42,0.00,,,-99.99,FreeWX 2.04,2013-02-19 23:42:00,
2013-02-19 18:47:00,23.2,3.6,29.53,WNW,284,1.0,5.8,42,0.00,,,-99.99,FreeWX 2.04,2013-02-19 23:47:00,
2013-02-19 18:52:00,23.0,3.4,29.53,West,274,2.0,9.6,42,0.00,,,-99.99,FreeWX 2.04,2013-02-19 23:52:00,
2013-02-19 18:57:00,22.8,3.2,29.53,WNW,283,3.0,9.2,42,0.00,,,-99.99,FreeWX 2.04,2013-02-19 23:57:00,
2013-02-19 19:02:00,22.8,3.2,29.53,WNW,284,2.0,6.7,42,0.00,,,-99.99,FreeWX 2.04,2013-02-20 00:02:00,
2013-02-19 19:07:00,22.6,2.5,29.56,West,279,2.0,12.5,41,0.00,,,-99.99,FreeWX 2.04,2013-02-20 00:07:00,
2013-02-19 19:12:00,22.5,1.8,29.56,WNW,288,4.0,14.3,40,0.00,,,-99.99,FreeWX 2.04,2013-02-20 00:12:00,
2013-02-19 19:17:00,22.3,2.7,29.56,WNW,291,4.0,13.4,42,0.00,,,-99.99,FreeWX 2.04,2013-02-20 00:17:00,
2013-02-19 19:22:00,22.3,2.7,29.56,West,280,2.0,9.2,42,0.00,,,-99.99,FreeWX 2.04,2013-02-20 00:22:00,
2013-02-19 19:27:00,22.1,2.5,29.56,West,280,2.0,7.8,42,0.00,,,-99.99,FreeWX 2.04,2013-02-20 00:27:00,
2013-02-19 19:32:00,21.9,2.3,29.56,WNW,296,2.0,8.7,42,0.00,,,-99.99,FreeWX 2.04,2013-02-20 00:32:00,
2013-02-19 19:37:00,21.7,1.8,29.56,NW,306,2.0,8.7,41,0.00,,,-99.99,FreeWX 2.04,2013-02-20 00:37:00,
2013-02-19 19:42:00,21.9,1.4,29.56,WNW,292,2.0,7.4,40,0.00,,,-99.99,FreeWX 2.04,2013-02-20 00:42:00,
2013-02-19 19:47:00,21.9,1.4,29.56,West,270,2.0,7.8,40,0.00,,,-99.99,FreeWX 2.04,2013-02-20 00:47:00,
2013-02-19 19:52:00,21.6,0.5,29.59,WNW,283,2.0,10.1,39,0.00,,,-99.99,FreeWX 2.04,2013-02-20 00:52:00,
2013-02-19 19:57:00,21.4,-1.3,29.59,WNW,302,3.0,14.3,36,0.00,,,-99.99,FreeWX 2.04,2013-02-20 00:57:00,
2013-02-19 20:02:00,21.4,-2.0,29.59,WNW,296,2.0,7.8,35,0.00,,,-99.99,FreeWX 2.04,2013-02-20 01:02:00,
2013-02-19 20:07:00,21.2,-2.7,29.59,WNW,298,3.0,15.2,34,0.00,,,-99.99,FreeWX 2.04,2013-02-20 01:07:00,
2013-02-19 20:12:00,21.2,-2.2,29.59,WNW,291,4.0,11.0,35,0.00,,,-99.99,FreeWX 2.04,2013-02-20 01:12:00,
2013-02-19 20:17:00,21.2,-1.5,29.59,West,281,2.0,13.4,36,0.00,,,-99.99,FreeWX 2.04,2013-02-20 01:17:00,
2013-02-19 20:22:00,21.2,-0.9,29.59,West,274,2.0,11.2,37,0.00,,,-99.99,FreeWX 2.04,2013-02-20 01:22:00,
2013-02-19 20:27:00,21.0,0.0,29.59,West,272,2.0,7.8,39,0.00,,,-99.99,FreeWX 2.04,2013-02-20 01:27:00,
2013-02-19 20:32:00,20.8,-0.8,29.59,WNW,282,2.0,11.0,38,0.00,,,-99.99,FreeWX 2.04,2013-02-20 01:32:00,
2013-02-19 20:37:00,20.8,-0.8,29.59,WNW,283,3.0,10.1,38,0.00,,,-99.99,FreeWX 2.04,2013-02-20 01:37:00,
2013-02-19 20:42:00,20.7,-0.4,29.59,WNW,286,2.0,9.2,39,0.00,,,-99.99,FreeWX 2.04,2013-02-20 01:42:00,
2013-02-19 20:47:00,20.5,-1.1,29.59,WNW,291,2.0,9.2,38,0.00,,,-99.99,FreeWX 2.04,2013-02-20 01:47:00,
2013-02-19 20:52:00,20.3,-1.8,29.59,WNW,290,3.0,10.1,37,0.00,,,-99.99,FreeWX 2.04,2013-02-20 01:52:00,
2013-02-19 20:57:00,20.3,-1.8,29.59,WNW,289,3.0,10.1,37,0.00,,,-99.99,FreeWX 2.04,2013-02-20 01:57:00,
2013-02-19 21:02:00,20.3,-2.4,29.59,West,276,2.0,8.3,36,0.00,,,-99.99,FreeWX 2.04,2013-02-20 02:02:00,
2013-02-19 21:07:00,20.1,-2.6,29.62,West,277,2.0,6.3,36,0.00,,,-99.99,FreeWX 2.04,2013-02-20 02:07:00,
2013-02-19 21:12:00,20.1,-3.1,29.62,WNW,287,3.0,11.2,35,0.00,,,-99.99,FreeWX 2.04,2013-02-20 02:12:00,
2013-02-19 21:17:00,19.9,-3.3,29.62,WNW,290,4.0,9.2,35,0.00,,,-99.99,FreeWX 2.04,2013-02-20 02:17:00,
2013-02-19 21:22:00,19.9,-3.3,29.62,WNW,288,3.0,10.1,35,0.00,,,-99.99,FreeWX 2.04,2013-02-20 02:22:00,
2013-02-19 21:27:00,19.9,-3.3,29.62,West,279,2.0,8.7,35,0.00,,,-99.99,FreeWX 2.04,2013-02-20 02:27:00,
2013-02-19 21:32:00,19.8,-3.5,29.62,WNW,286,2.0,10.5,35,0.00,,,-99.99,FreeWX 2.04,2013-02-20 02:32:00,
2013-02-19 21:37:00,19.6,-3.6,29.62,WNW,292,3.0,8.3,35,0.00,,,-99.99,FreeWX 2.04,2013-02-20 02:37:00,
2013-02-19 21:42:00,19.6,-3.6,29.62,WNW,283,3.0,11.2,35,0.00,,,-99.99,FreeWX 2.04,2013-02-20 02:42:00,
2013-02-19 21:47:00,19.4,-3.8,29.62,WNW,288,3.0,15.4,35,0.00,,,-99.99,FreeWX 2.04,2013-02-20 02:47:00,
2013-02-19 21:52:00,19.2,-3.8,29.62,WNW,295,3.0,9.2,35,0.00,,,-99.99,FreeWX 2.04,2013-02-20 02:52:00,